Home > Time Zones > World Clock > Weather > U.S.A. > Adak > Past weeks

Flag for U.S.A. Weather past 2 weeks in Adak, Alaska, U.S.A.

Now
52 °F

Low clouds.


Feels Like: 47 °F
Forecast: 49 / 55 °F
Wind: 13 mph from West

Location: Adak

Current Time: Jul 22, 2014 at 9:43:05 PM

Latest Report: Jul 22, 2014 at 8:56 PM


Visibility: 5 mi

Pressure: 30.27 "Hg

Humidity: 82%

Dew point: 46 °F

Location of AdakLocation

Historic Weather in Adak — Graph

°F

Adak temperature yesterday

Maximum temperature yesterday: 54 °F (at 12:56 PM)
Minimum temperature yesterday: 48 °F (at 12:16 AM)
Average temperature yesterday: 50 °F

Past Weeks' High & Low Weather Summary

 TemperatureHumidityPressure
High57 °F (Jul 12, 2:36 PM)88% (Jul 20, 8:36 PM)30.27 "Hg (Jul 20, 8:36 PM)
Low43 °F (Jul 16, 3:16 AM)58% (Jul 9, 5:16 PM)29.89 "Hg (Jul 7, 8:16 PM)
Average50 °F79%30.12 "Hg
* Reported Jul 7 8:16 PM — Jul 22 8:36 PM, Adak, Weather by CustomWeather, © 2014

Note: Actual official high and low records may vary slightly from our data, if they occured in-between our weather recording intervals... More about our weather records

Advertising

Adak weather history for previous 24 hours

 ConditionsComfort  
Time TempWeatherWind HumidityBarometerVisibility
8:36 PM
Jul 22
52 °FMostly cloudy.12 mph82%30.27 "Hg5 mi
7:56 PM54 °FMore clouds than sun.12 mph77%30.27 "Hg10 mi
7:16 PM55 °FLow clouds.12 mph77%30.26 "Hg10 mi
6:56 PM54 °FOvercast.5 mph77%30.26 "Hg10 mi
6:36 PM54 °FOvercast.12 mph77%30.26 "Hg10 mi
6:16 PM54 °FOvercast.No wind82%30.26 "Hg10 mi
5:56 PM54 °FOvercast.10 mph77%30.26 "Hg10 mi
5:36 PM55 °FMostly cloudy.13 mph77%30.26 "Hg10 mi
5:16 PM54 °FOvercast.15 mph82%30.26 "Hg10 mi
4:56 PM55 °FMore clouds than sun.13 mph77%30.26 "Hg10 mi
4:36 PM55 °FLow clouds.10 mph77%30.26 "Hg10 mi
4:16 PM55 °FLow clouds.9 mph77%30.25 "Hg10 mi
3:56 PM55 °FLow clouds.10 mph77%30.25 "Hg10 mi
3:36 PM55 °FMostly cloudy.9 mph77%30.24 "Hg10 mi
2:56 PM55 °FLow clouds.13 mph77%30.24 "Hg10 mi
7:56 AM52 °FMostly cloudy.15 mph82%30.17 "Hg10 mi
7:36 AM52 °FOvercast.7 mph82%30.18 "Hg10 mi
7:16 AM52 °FMostly cloudy.6 mph82%30.17 "Hg10 mi
6:56 AM50 °FLow clouds.6 mph82%30.17 "Hg10 mi
6:36 AM48 °FMostly cloudy.No wind87%30.17 "Hg6 mi
6:16 AM48 °FMostly cloudy.9 mph87%30.16 "Hg9 mi
5:56 AM48 °FLow clouds.8 mph87%30.16 "Hg10 mi
5:36 AM48 °FMostly cloudy.10 mph87%30.15 "Hg10 mi
5:16 AM48 °FLow clouds.12 mph87%30.14 "Hg10 mi
4:56 AM48 °FLow clouds.7 mph87%30.15 "Hg10 mi
4:36 AM48 °FLow clouds.3 mph87%30.15 "Hg7 mi
4:16 AM48 °FLow clouds.8 mph87%30.15 "Hg5 mi
3:56 AM48 °FMostly cloudy.10 mph87%30.15 "Hg5 mi
3:36 AM48 °FPartly cloudy.7 mph87%30.15 "Hg5 mi
3:16 AM48 °FMostly cloudy.13 mph82%30.15 "Hg7 mi
2:56 AM48 °FLow clouds.8 mph82%30.15 "Hg10 mi
2:36 AM48 °FMostly cloudy.9 mph82%30.15 "Hg9 mi
2:16 AM48 °FMostly cloudy.9 mph82%30.14 "Hg10 mi
1:56 AM48 °FMostly cloudy.9 mph82%30.15 "Hg10 mi
1:36 AM48 °FLow clouds.9 mph82%30.15 "Hg10 mi
1:16 AM48 °FOvercast.7 mph82%30.14 "Hg10 mi
12:56 AM48 °FOvercast.3 mph82%30.14 "Hg10 mi
12:36 AM48 °FOvercast.5 mph82%30.15 "Hg10 mi
11:56 PM
Jul 21
48 °FMostly cloudy.9 mph82%30.14 "Hg10 mi
11:36 PM48 °FOvercast.9 mph82%30.14 "Hg10 mi
11:16 PM48 °FOvercast.No wind82%30.14 "Hg10 mi
10:56 PM48 °FOvercast.3 mph87%30.13 "Hg10 mi
10:36 PM48 °FPartly sunny.No wind87%30.13 "Hg10 mi
10:16 PM48 °FPartly sunny.No wind87%30.12 "Hg10 mi
9:56 PM50 °FOvercast.8 mph82%30.12 "Hg10 mi
9:36 PM50 °FOvercast.3 mph82%30.11 "Hg10 mi
9:16 PM52 °FOvercast.7 mph82%30.11 "Hg10 mi
Weather by CustomWeather, © 2014

See weather overviewHow to use our weather pages